Location: Newton_East
(35.6670°N, 81.2000°W)
Time: 13:28:00
(UTC-04:00)

ISS - Visible Passes

Search period start: 19 April 2014 00:00
Search period end: 29 April 2014 00:00
Orbit: 414 x 419 km, 51.6° (Epoch: 19 April)

Date Brightness Start Highest point End Pass type
(mag) Time Alt. Az. Time Alt. Az. Time Alt. Az.
19 Apr -0.9 22:18:05 10° NNW 22:19:39 22° N 22:19:39 22° N visible
20 Apr -1.4 21:29:58 10° NNW 21:32:34 20° NNE 21:33:08 20° NE visible
21 Apr -0.9 20:41:59 10° N 20:43:51 14° NNE 20:45:43 10° ENE visible
21 Apr -1.4 22:17:36 10° NW 22:19:30 31° NW 22:19:30 31° NW visible
22 Apr -2.9 21:29:06 10° NW 21:32:23 51° NE 21:32:58 44° ENE visible
23 Apr -2.0 20:40:41 10° NNW 20:43:40 29° NE 20:46:26 11° E visible
23 Apr -1.0 22:17:34 10° WNW 22:19:20 20° WSW 22:19:20 20° WSW visible
24 Apr -2.5 21:28:30 10° WNW 21:31:43 45° SW 21:32:49 32° S visible
25 Apr -3.3 20:39:40 10° NW 20:43:00 88° NE 20:46:19 10° SE visible
26 Apr -0.6 21:28:44 10° W 21:30:35 14° SW 21:32:26 10° SSW visible
27 Apr -1.4 20:39:01 10° WNW 20:41:52 26° SW 20:44:43 10° S visible
